Location: Brookfield Village
(37.7352°N, 122.1861°W)
Time: 10:17:21
(UTC+00:00)

ARIANE 6 FM1 Upper Stage - Visible Passes

Search period start: 12 October 2024 00:00
Search period end: 22 October 2024 00:00
Orbit: 563 x 594 km, 62.0° (Epoch: 11 October)

Date Brightness Start Highest point End Pass type
(mag) Time Alt. Az. Time Alt. Az. Time Alt. Az.
16 Oct 5.7 04:14:52 10° NNW 04:14:52 10° NNW 04:14:52 10° NNW visible
17 Oct 5.7 04:18:53 10° NNW 04:19:07 11° NNW 04:19:07 11° NNW visible
18 Oct 4.9 02:45:26 10° N 02:47:07 13° NNE 02:47:07 13° NNE visible
18 Oct 5.7 04:23:00 10° NW 04:23:25 12° NW 04:23:25 12° NW visible
19 Oct 4.4 02:48:49 10° N 02:51:29 18° NE 02:51:29 18° NE visible
19 Oct 5.7 04:27:17 10° NW 04:27:46 13° NW 04:27:46 13° NW visible
20 Oct 3.9 02:52:30 10° NNW 02:55:56 27° NE 02:55:56 27° NE visible
20 Oct 5.8 04:31:42 10° NW 04:32:14 13° WNW 04:32:14 13° WNW visible
21 Oct 3.2 02:56:22 10° NNW 03:00:30 42° NE 03:00:30 42° NE visible
21 Oct 5.9 04:36:27 10° WNW 04:36:49 11° WNW 04:36:49 11° WNW visible
